User: anonymous   Login
Location: Clatteringshaws Loch
(55.0508°N, 4.2860°W)
Time: 22:28:04
(UTC+00:00)
Language:

Cosmos 2221 Rocket - Orbit

View from above orbital plane
View from above orbital plane
View from above satellite
View from above satellite

Ground track
Ground track

The orbit data is extracted from the following two-line orbital elements,

1 22237U 92080B   15025.94811406  .00000292  00000-0  37226-4 0  5512
2 22237 082.5105 209.9087 0020268 176.7377 295.1661 14.78036586194439
Epoch (UTC): 25 January 2015 22:45:17
Eccentricity: 0.0020268
inclination: 82.5105°
perigee height: 621 km
apogee height: 650 km
right ascension of ascending node: 209.9087°
argument of perigee: 176.7377°
revolutions per day: 14.78036586
mean anomaly at epoch: 295.1661°
orbit number at epoch: 19443

The dashed part of the orbit path shows where the satellite is in the earth's shadow,  

DLR